Hourly Data Report for September 01, 2017

All times are specified in Local Standard Time (LST). Add 1 hour to adjust for Daylight Saving Time where and when it is observed.

SAINT JOHN A
NEW BRUNSWICK

45°18'58.000" N
65°53'24.000" W
108.80 m
8104901
71609
YSJ

Download Data

Hourly Data (September 2017)
Hourly Data Report for September 1, 2017
Temp Definition
°C
Dew Point Temp Definition
°C
Rel Hum Definition
%
Wind Dir Definition
10's deg

Wind Spd Definition
km/h
Visibility Definition
km
Stn Press Definition
kPa
Hmdx Definition


Wind Chill Definition


Weather Definition


TIME
00:00 Legend Double Dagger 12.6 8.0 73 31 15 24.1 99.41     LegendNANA
01:00 Legend Double Dagger 10.5 7.9 84 30 8 24.1 99.44     LegendNANA
02:00 Legend Double Dagger 10.5 7.5 82 29 10 24.1 99.44     Clear
03:00 Legend Double Dagger 10.2 8.0 86 28 11 24.1 99.44     LegendNANA
04:00 Legend Double Dagger 10.0 7.6 85 27 13 24.1 99.44     LegendNANA
05:00 Legend Double Dagger 9.3 7.1 86 28 10 24.1 99.45     Mainly Clear
06:00 Legend Double Dagger 8.9 7.0 88 26 8 24.1 99.47     LegendNANA
07:00 Legend Double Dagger 10.4 7.4 81 27 14 24.1 99.51     LegendNANA
08:00 Legend Double Dagger 11.7 6.6 71 28 21 24.1 99.51     Mostly Cloudy
09:00 Legend Double Dagger 13.3 5.8 60 29 22 24.1 99.51     LegendNANA
10:00 Legend Double Dagger 14.8 5.7 54 29 21 24.1 99.49     LegendNANA
11:00 Legend Double Dagger 14.2 4.1 50 28 22 24.1 99.50     Mostly Cloudy
12:00 Legend Double Dagger 14.0 4.2 51 27 14 24.1 99.46     LegendNANA
13:00 Legend Double Dagger 15.5 2.6 42 26 22 24.1 99.45     LegendNANA
14:00 Legend Double Dagger 11.7 8.0 78 25 8 24.1 99.49     Rain Showers
15:00 Legend Double Dagger 14.7 5.2 53 29 19 24.1 99.49     LegendNANA
16:00 Legend Double Dagger 11.5 6.1 69 28 17 24.1 99.56     LegendNANA
17:00 Legend Double Dagger 11.5 5.1 64 30 23 24.1 99.62     Cloudy
18:00 Legend Double Dagger 11.4 5.3 66 29 20 24.1 99.67     LegendNANA
19:00 Legend Double Dagger 10.4 6.1 75 29 21 19.3 99.76     Rain
20:00 Legend Double Dagger 11.3 5.4 67 30 28 24.1 99.80     Cloudy
21:00 Legend Double Dagger 10.6 5.9 73 31 30 24.1 99.86     LegendNANA
22:00 Legend Double Dagger 10.2 5.9 75 30 16 24.1 99.96     LegendNANA
23:00 Legend Double Dagger 10.6 6.0 73 31 23 24.1 100.04     Cloudy

Notes on Data Quality.

Legend

  • E = Estimated
  • M = Missing
  • NA = Not Available
  • ‡ = Partner data that is not subject to review by the National Climate Archives
Date modified: